TimeMST,TemperatureF,Dew PointF,Humidity,Sea Level PressureIn,VisibilityMPH,Wind Direction,Wind SpeedMPH,Gust SpeedMPH,PrecipitationIn,Events,Conditions,WindDirDegrees,DateUTC
12:53 AM,30.0,15.1,54,30.34,10.0,East,3.5,-,N/A,,Clear,100,2012-11-28 07:53:00
1:53 AM,30.0,16.0,56,30.33,10.0,SE,13.8,-,N/A,,Clear,130,2012-11-28 08:53:00
2:53 AM,28.9,15.1,56,30.33,10.0,East,5.8,-,N/A,,Clear,90,2012-11-28 09:53:00
3:53 AM,30.9,16.0,54,30.30,10.0,East,13.8,-,N/A,,Clear,100,2012-11-28 10:53:00
4:53 AM,28.9,16.0,58,30.34,10.0,SE,3.5,-,N/A,,Clear,140,2012-11-28 11:53:00
5:53 AM,23.0,12.9,65,30.39,10.0,Calm,Calm,-,N/A,,Clear,0,2012-11-28 12:53:00
6:53 AM,23.0,12.0,63,30.40,10.0,East,3.5,-,N/A,,Clear,90,2012-11-28 13:53:00
7:53 AM,25.0,14.0,63,30.42,10.0,East,5.8,-,N/A,,Clear,80,2012-11-28 14:53:00
8:53 AM,30.9,16.0,54,30.40,10.0,Calm,Calm,-,N/A,,Clear,0,2012-11-28 15:53:00
9:53 AM,36.0,17.1,46,30.38,10.0,Calm,Calm,-,N/A,,Clear,0,2012-11-28 16:53:00
10:53 AM,41.0,16.0,36,30.35,10.0,Calm,Calm,-,N/A,,Clear,0,2012-11-28 17:53:00
11:53 AM,46.0,12.9,26,30.28,10.0,Variable,4.6,-,N/A,,Clear,0,2012-11-28 18:53:00
12:53 PM,48.0,14.0,26,30.25,10.0,Variable,3.5,-,N/A,,Clear,0,2012-11-28 19:53:00
1:53 PM,48.0,14.0,26,30.22,10.0,Calm,Calm,-,N/A,,Clear,0,2012-11-28 20:53:00
2:53 PM,51.1,14.0,23,30.20,10.0,WNW,3.5,-,N/A,,Clear,290,2012-11-28 21:53:00
3:53 PM,50.0,15.1,25,30.16,10.0,Calm,Calm,-,N/A,,Clear,0,2012-11-28 22:53:00
4:53 PM,46.0,16.0,30,30.17,10.0,Calm,Calm,-,N/A,,Clear,0,2012-11-28 23:53:00
5:53 PM,37.0,12.9,37,30.22,10.0,Calm,Calm,-,N/A,,Clear,0,2012-11-29 00:53:00
6:53 PM,35.1,12.9,40,30.24,10.0,East,5.8,-,N/A,,Clear,80,2012-11-29 01:53:00
7:53 PM,35.1,14.0,42,30.23,10.0,East,4.6,-,N/A,,Clear,90,2012-11-29 02:53:00
8:53 PM,33.1,14.0,46,30.20,10.0,ENE,6.9,-,N/A,,Clear,60,2012-11-29 03:53:00
9:53 PM,41.0,17.1,38,30.15,10.0,ESE,16.1,-,N/A,,Partly Cloudy,110,2012-11-29 04:53:00
10:53 PM,41.0,17.1,38,30.14,10.0,ESE,12.7,-,N/A,,Mostly Cloudy,110,2012-11-29 05:53:00
11:53 PM,37.0,18.0,46,30.14,10.0,South,8.1,-,N/A,,Clear,180,2012-11-29 06:53:00